{"data":{"norad_id":68030,"epoch":"2026-09-19T02:25:31.015488Z","epoch_age_seconds":180425,"freshness":"STALE","line1":"1 68030U 26040R   26262.10105342  .00036375  00000+0  11219-2 0  9992","line2":"2 68030  97.2835 209.4622 0001211 108.4998 251.6377 15.33493698 31109","mean_motion":15.33493698,"eccentricity":0.0001211,"inclination_deg":97.2835,"raan_deg":209.4622,"arg_perigee_deg":108.4998,"mean_anomaly_deg":251.6377,"bstar":0.0011219,"rev_number":3110,"period_min":93.903222548489,"perigee_km":464.56953520314,"apogee_km":466.22703944973,"semimajor_km":6843.5352873264,"source":"CELESTRAK","updated_at":"2026-09-20T09:00:43.744582Z"}}